STARLINK-30154, 57495

Orbit data source: Space-Track

STARLINK-30154, 57495 is a payload satellite owned by SpaceX/Seattle (US) in LEO that was launched on Mon, 07 Aug 2023 UTC via an FALCON 9 launch vehicle from the Air Force Eastern Test Range (AFETR). Payload-class satellites include a variety of spacecraft equipped with specific instruments for various scientific and technological missions. These include communications satellites like Starlink; space stations such as the ISS; scientific satellites like the Hubble; Earth observation satellites from companies like Planet Labs, Umbra, and HawkEye 360; GPS; miniature CubeSats for education and research; and military/defense satellites.

Loading next visibility...
Identifier
57495, 2023-113A
Orbit
LEO
Country
Flag of USUS
Related business
Manufacturer
SpaceX/Seattle
Mission
Operational Commercial Communications
Bus & Motor
STARLINK V2M, Unknown motor
Mass
730 kg wet, ~700 kg dry
Launch date (UTC)
2023-08-07 (3 years ago)
Launch vehicle
FALCON 9
Launch site
Air Force Eastern Test Range (AFETR)
Object type
Payload
Rocket body
Debris
Shape & HBR
Box + 2 Pan, 17.7 m
Radar Cross Section
33.884 m², Large (>1 m²)

Expand to show TLE details & history
Last TLE update: 2 days ago

TLE from 2 days ago
0 STARLINK-30154
1 57495U 23113A   26171.32320992 -.00000840  00000-0 -20990-4 0  9995
2 57495  43.0031 156.2716 0001744 271.9012  88.1640 15.27570683159218
Epoch: 2026-06-20T07:45Z
TLE epoch observation values (Epoch: 2026-06-20T07:45:25.337Z)
Latitude
Longitude
131.37655°
Altitude
482.815 km
Speed
7.626 km/s
True Right ascension
10h 25m 05s
True Declination
0° 00' 00"
Sunlit
Object was in daylight at epoch
Visualization orbit readout
Latitude
Unknown
Longitude
Unknown
Altitude
Unknown
Speed
Unknown
Apparent Right ascension
Unknown
Apparent Declination
Unknown
Sunlit
N/A
Visualization observer readout
Local Sidereal Time
21:28:07
Azimuth
Unknown
Elevation
Unknown
Doppler factor
Unknown
Orbital elements
Apogee altitude
486.219 km
Perigee altitude
483.825 km
Semi-major axis
6,863.159 km
Eccentricity
0.00017
Inclination
43.0031°
RAAN
156.2716°
Arg. of periapsis
271.9012°
True anomaly
88.18397°
Mean anomaly
88.164°
Eccentric anomaly
88.17399°
Mean motion
3.81731 °/min
Orbital period
94.31 mins
BSTAR
-0.00002099
Loading maneuver chart data...
Computing Atmospheric mass density...
Loading historical data...
Loading historical data...
Loading historical data...
Loading historical data...
Loading historical data...
Loading historical data...
Loading historical data...

Documentation

Showing up to 5 results
|